Flag for U.S.A. Weather past 2 weeks in Port St. Lucie, Florida, U.S.A.

Now
86 °F

Thundershowers. Sunny.


Feels Like: 95 °F
Forecast: 76 / 91 °F
Wind: 12 mph from Southeast

Location: Witham Field Airport

Current Time: Sep 2, 2015 at 6:57:16 PM

Latest Report: Sep 2, 2015 at 4:47 PM


Visibility: 7 mi

Pressure: 30.01 "Hg

Humidity: 70%

Dew point: 75 °F

Location of Port St. LucieLocation

Historic Weather in Port St. Lucie — Graph

°F

Port St. Lucie temperature yesterday

Maximum temperature yesterday: 88 °F (at 12:47 PM)
Minimum temperature yesterday: 73 °F (at 1:35 AM)
Average temperature yesterday: 79 °F

Past Weeks' High & Low Weather Summary

 TemperatureHumidityPressure
High91 °F (Aug 25, 1:47 PM)94% (Aug 20, 6:15 AM)30.12 "Hg (Aug 20, 6:15 AM)
Low73 °F (Aug 27, 3:15 AM)49% (Aug 25, 11:47 AM)29.89 "Hg (Aug 24, 5:50 PM)
Average80 °F81%30.00 "Hg
* Reported Aug 18 4:47 PM — Sep 2 4:47 PM, Port St. Lucie, Weather by CustomWeather, © 2015

Note: Actual official high and low records may vary slightly from our data, if they occured in-between our weather recording intervals... More about our weather records

Advertising

Port St. Lucie weather history for previous 24 hours

 ConditionsComfort  
Time TempWeatherWind HumidityBarometerVisibility
4:47 PM
Wed, Sep 2
86 °FThundershowers. Sunny.12 mph70%30.01 "Hg7 mi
3:47 PM88 °FScattered showers. Sunny.12 mph70%30.02 "Hg7 mi
2:47 PM88 °FScattered showers. Scattered clouds.12 mph66%30.05 "Hg7 mi
1:47 PM88 °FScattered showers. Partly sunny.10 mph66%30.07 "Hg7 mi
12:47 PM88 °FPartly sunny.No wind66%30.09 "Hg7 mi
11:47 AM88 °FPartly sunny.No wind62%30.10 "Hg7 mi
10:47 AM86 °FPartly sunny.No wind66%30.12 "Hg7 mi
9:47 AM84 °FScattered clouds.No wind74%30.11 "Hg7 mi
8:47 AM81 °FPassing clouds.No wind89%30.10 "Hg7 mi
7:47 AM77 °FPassing clouds.No wind94%30.08 "Hg7 mi
6:47 AM75 °FPassing clouds.3 mph94%30.08 "Hg7 mi
5:55 AM75 °FMild.5 mph94%30.07 "HgN/A
5:35 AM77 °FWarm.No wind89%30.06 "HgN/A
5:15 AM77 °FWarm.3 mph89%30.06 "HgN/A
4:55 AM75 °FMild.3 mph94%30.05 "HgN/A
4:35 AM77 °FWarm.No wind89%30.05 "HgN/A
4:15 AM77 °FWarm.No wind89%30.05 "HgN/A
3:55 AM75 °FMild.No wind94%30.05 "HgN/A
3:15 AM77 °FWarm.No wind89%30.05 "HgN/A
2:55 AM77 °FWarm.No wind89%30.06 "HgN/A
2:35 AM77 °FWarm.No wind89%30.06 "HgN/A
2:15 AM77 °FWarm.No wind89%30.07 "HgN/A
1:55 AM77 °FWarm.No wind89%30.07 "HgN/A
1:35 AM77 °FWarm.No wind89%30.08 "HgN/A
1:15 AM79 °FClear.No wind84%30.08 "HgN/A
12:55 AM79 °FClear.No wind84%30.09 "HgN/A
12:35 AM79 °FClear.No wind84%30.09 "HgN/A
12:15 AM79 °FClear.No wind84%30.09 "HgN/A
11:55 PM
Tue, Sep 1
79 °FClear.5 mph84%30.09 "HgN/A
11:15 PM79 °FClear.3 mph84%30.09 "HgN/A
10:55 PM79 °FClear.3 mph84%30.10 "HgN/A
10:35 PM81 °FClear.3 mph79%30.10 "HgN/A
10:15 PM81 °FClear.No wind79%30.10 "HgN/A
9:55 PM81 °FClear.3 mph79%30.09 "HgN/A
9:35 PM81 °FClear.5 mph79%30.09 "HgN/A
9:15 PM81 °FClear.5 mph79%30.07 "HgN/A
8:55 PM81 °FClear.7 mph79%30.07 "HgN/A
8:35 PM81 °FSunny.5 mph79%30.07 "HgN/A
8:15 PM81 °FThundershowers. Sunny.3 mph79%30.07 "HgN/A
7:55 PM81 °FThunderstorms. Sunny.6 mph79%30.07 "HgN/A
7:35 PM82 °FScattered clouds.6 mph74%30.07 "HgN/A
7:15 PM82 °FScattered clouds.7 mph74%30.08 "HgN/A
6:55 PM84 °FSunny.9 mph70%30.07 "HgN/A
Weather by CustomWeather, © 2015

See weather overviewHow to use our weather pages